Time,TemperatureF,DewpointF,PressureIn,WindDirection,WindDirectionDegrees,WindSpeedMPH,WindSpeedGustMPH,Humidity,HourlyPrecipIn,Conditions,Clouds,dailyrainin,SoftwareType,DateUTC
2013-01-05 00:00:00,40.3,33.7,30.31,NE,43,3.6,4.0,77,0.00,,---,0.00,VWS V14.01,2013-01-05 08:00:00,
2013-01-05 00:05:00,39.7,32.8,30.31,NE,36,3.6,4.0,76,0.00,,---,0.00,VWS V14.01,2013-01-05 08:05:00,
2013-01-05 00:10:00,40.5,33.8,30.31,NNE,17,3.1,4.0,77,0.00,,---,0.00,VWS V14.01,2013-01-05 08:10:00,
2013-01-05 00:15:00,39.7,32.8,30.31,NE,38,3.6,4.5,76,0.00,,---,0.00,VWS V14.01,2013-01-05 08:15:00,
2013-01-05 00:20:00,40.5,33.5,30.31,NNE,25,3.6,5.4,76,0.00,,---,0.00,VWS V14.01,2013-01-05 08:20:00,
2013-01-05 00:25:00,40.3,33.3,30.31,NNE,22,2.7,4.0,76,0.00,,---,0.00,VWS V14.01,2013-01-05 08:25:00,
2013-01-05 00:30:00,39.6,32.6,30.31,NNE,33,2.7,5.4,76,0.00,,---,0.00,VWS V14.01,2013-01-05 08:30:00,
2013-01-05 00:35:00,40.3,33.0,30.31,NNE,21,2.7,5.8,75,0.00,,---,0.00,VWS V14.01,2013-01-05 08:35:00,
2013-01-05 00:40:00,40.3,33.0,30.31,NNE,26,5.4,6.3,75,0.00,,---,0.00,VWS V14.01,2013-01-05 08:40:00,
2013-01-05 00:45:00,39.9,32.7,30.31,North,10,4.0,5.4,75,0.00,,---,0.00,VWS V14.01,2013-01-05 08:45:00,
2013-01-05 00:50:00,39.6,33.0,30.31,NE,54,3.6,4.0,77,0.00,,---,0.00,VWS V14.01,2013-01-05 08:50:00,
2013-01-05 00:55:00,39.9,32.7,30.31,NNE,23,3.1,4.9,75,0.00,,---,0.00,VWS V14.01,2013-01-05 08:55:00,
2013-01-05 01:00:00,39.7,32.8,30.31,NNE,27,3.1,4.0,76,0.00,,---,0.00,VWS V14.01,2013-01-05 09:00:00,
2013-01-05 01:05:00,39.9,33.0,30.31,NNE,18,4.0,4.9,76,0.00,,---,0.00,VWS V14.01,2013-01-05 09:05:00,
2013-01-05 01:10:00,39.7,32.8,30.31,NNE,28,3.1,4.9,76,0.00,,---,0.00,VWS V14.01,2013-01-05 09:10:00,
2013-01-05 01:15:00,39.7,32.8,30.31,NE,38,3.6,4.5,76,0.00,,---,0.00,VWS V14.01,2013-01-05 09:15:00,
2013-01-05 01:20:00,39.7,32.8,30.31,NNE,19,4.0,5.4,76,0.00,,---,0.00,VWS V14.01,2013-01-05 09:20:00,
2013-01-05 01:25:00,39.7,32.8,30.31,NE,38,3.1,4.9,76,0.00,,---,0.00,VWS V14.01,2013-01-05 09:25:00,
2013-01-05 01:30:00,39.7,33.1,30.31,NE,42,4.0,6.3,77,0.00,,---,0.00,VWS V14.01,2013-01-05 09:30:00,
2013-01-05 01:35:00,39.6,33.0,30.31,NNE,22,4.0,5.8,77,0.00,,---,0.00,VWS V14.01,2013-01-05 09:35:00,
2013-01-05 01:40:00,39.7,32.8,30.31,NE,40,3.1,6.3,76,0.00,,---,0.00,VWS V14.01,2013-01-05 09:40:00,
2013-01-05 01:45:00,39.6,33.0,30.31,NE,37,2.7,4.0,77,0.00,,---,0.00,VWS V14.01,2013-01-05 09:45:00,
2013-01-05 01:50:00,39.9,33.0,30.31,NNE,12,3.1,4.9,76,0.00,,---,0.00,VWS V14.01,2013-01-05 09:50:00,
2013-01-05 01:55:00,39.7,33.1,30.31,North,8,2.7,4.0,77,0.00,,---,0.00,VWS V14.01,2013-01-05 09:55:00,
2013-01-05 02:00:00,40.1,32.8,30.31,NE,41,4.0,4.9,75,0.00,,---,0.00,VWS V14.01,2013-01-05 10:00:00,
2013-01-05 02:05:00,39.9,33.0,30.31,NNE,18,4.0,4.9,76,0.00,,---,0.00,VWS V14.01,2013-01-05 10:05:00,
2013-01-05 02:10:00,39.7,32.8,30.31,NE,42,3.6,5.8,76,0.00,,---,0.00,VWS V14.01,2013-01-05 10:10:00,
2013-01-05 02:15:00,39.7,32.8,30.31,NE,35,2.7,4.9,76,0.00,,---,0.00,VWS V14.01,2013-01-05 10:15:00,
2013-01-05 02:20:00,39.7,32.8,30.31,NNE,19,4.0,5.4,76,0.00,,---,0.00,VWS V14.01,2013-01-05 10:20:00,
2013-01-05 02:25:00,39.9,32.3,30.31,NE,43,3.6,4.0,74,0.00,,---,0.00,VWS V14.01,2013-01-05 10:25:00,
2013-01-05 02:30:00,39.7,33.1,30.31,NE,42,4.0,6.3,77,0.00,,---,0.00,VWS V14.01,2013-01-05 10:30:00,
2013-01-05 02:35:00,39.9,32.0,30.31,NE,38,4.0,4.0,73,0.00,,---,0.00,VWS V14.01,2013-01-05 10:35:00,
2013-01-05 02:40:00,39.7,32.8,30.31,NE,40,3.1,6.3,76,0.00,,---,0.00,VWS V14.01,2013-01-05 10:40:00,
2013-01-05 02:45:00,39.9,33.0,30.31,NE,45,2.7,4.9,76,0.00,,---,0.00,VWS V14.01,2013-01-05 10:45:00,
2013-01-05 02:50:00,39.7,31.8,30.31,NNE,27,4.0,4.0,73,0.00,,---,0.00,VWS V14.01,2013-01-05 10:50:00,
2013-01-05 02:55:00,39.9,33.0,30.31,NNE,30,2.7,3.6,76,0.00,,---,0.00,VWS V14.01,2013-01-05 10:55:00,
2013-01-05 03:00:00,40.1,32.8,30.31,NE,41,4.0,4.9,75,0.00,,---,0.00,VWS V14.01,2013-01-05 11:00:00,
2013-01-05 03:05:00,40.1,32.8,30.31,NE,56,3.1,5.8,75,0.00,,---,0.00,VWS V14.01,2013-01-05 11:05:00,
2013-01-05 03:10:00,39.0,31.8,30.31,NNE,32,3.1,4.9,75,0.00,,---,0.00,VWS V14.01,2013-01-05 11:10:00,
2013-01-05 03:15:00,40.1,32.5,30.31,NE,44,3.1,4.9,74,0.00,,---,0.00,VWS V14.01,2013-01-05 11:15:00,
2013-01-05 03:20:00,39.9,32.3,30.31,NNE,24,3.1,4.0,74,0.00,,---,0.00,VWS V14.01,2013-01-05 11:20:00,
2013-01-05 03:25:00,38.8,31.9,30.31,NE,36,2.7,4.0,76,0.00,,---,0.00,VWS V14.01,2013-01-05 11:25:00,
2013-01-05 03:30:00,39.9,32.3,30.31,NE,49,4.0,4.0,74,0.00,,---,0.00,VWS V14.01,2013-01-05 11:30:00,
2013-01-05 03:35:00,38.8,31.9,30.31,NE,35,3.6,4.0,76,0.00,,---,0.00,VWS V14.01,2013-01-05 11:35:00,
2013-01-05 03:40:00,39.9,32.0,30.31,NE,34,3.1,4.0,73,0.00,,---,0.00,VWS V14.01,2013-01-05 11:40:00,
2013-01-05 03:45:00,38.8,31.9,30.31,NE,45,3.1,4.0,76,0.00,,---,0.00,VWS V14.01,2013-01-05 11:45:00,
2013-01-05 03:50:00,39.7,31.8,30.31,NNE,27,4.0,4.0,73,0.00,,---,0.00,VWS V14.01,2013-01-05 11:50:00,
2013-01-05 03:55:00,39.6,32.0,30.31,NE,51,5.4,5.8,74,0.00,,---,0.00,VWS V14.01,2013-01-05 11:55:00,
2013-01-05 04:00:00,38.7,32.1,30.31,NNE,33,3.6,5.4,77,0.00,,---,0.00,VWS V14.01,2013-01-05 12:00:00,
2013-01-05 04:05:00,39.2,32.0,30.31,NE,38,3.1,5.4,75,0.00,,---,0.00,VWS V14.01,2013-01-05 12:05:00,
2013-01-05 04:10:00,38.5,31.9,30.31,North,9,4.0,4.0,77,0.00,,---,0.00,VWS V14.01,2013-01-05 12:10:00,
2013-01-05 04:15:00,39.0,32.1,30.31,NE,38,3.1,4.0,76,0.00,,---,0.00,VWS V14.01,2013-01-05 12:15:00,
2013-01-05 04:20:00,38.7,31.8,30.31,NNE,29,4.0,4.0,76,0.00,,---,0.00,VWS V14.01,2013-01-05 12:20:00,
2013-01-05 04:25:00,38.8,31.9,30.31,NE,36,2.7,4.0,76,0.00,,---,0.00,VWS V14.01,2013-01-05 12:25:00,
2013-01-05 04:30:00,38.8,31.9,30.31,NE,35,2.7,3.6,76,0.00,,---,0.00,VWS V14.01,2013-01-05 12:30:00,
2013-01-05 04:35:00,38.8,31.9,30.31,NE,35,3.6,4.0,76,0.00,,---,0.00,VWS V14.01,2013-01-05 12:35:00,
2013-01-05 04:40:00,38.8,31.9,30.31,NE,45,2.7,4.0,76,0.00,,---,0.00,VWS V14.01,2013-01-05 12:40:00,
2013-01-05 04:45:00,38.3,32.0,30.31,East,86,3.1,6.3,78,0.00,,---,0.00,VWS V14.01,2013-01-05 12:45:00,
2013-01-05 04:50:00,38.8,31.9,30.31,NE,46,2.7,5.8,76,0.00,,---,0.00,VWS V14.01,2013-01-05 12:50:00,
2013-01-05 04:55:00,38.3,31.7,30.31,NE,44,2.7,5.8,77,0.00,,---,0.00,VWS V14.01,2013-01-05 12:55:00,
2013-01-05 05:00:00,38.7,32.1,30.31,NNE,33,3.6,5.4,77,0.00,,---,0.00,VWS V14.01,2013-01-05 13:00:00,
2013-01-05 05:05:00,38.7,32.1,30.31,NNE,31,2.7,4.0,77,0.00,,---,0.00,VWS V14.01,2013-01-05 13:05:00,
2013-01-05 05:10:00,38.5,31.9,30.31,North,9,4.0,4.0,77,0.00,,---,0.00,VWS V14.01,2013-01-05 13:10:00,
2013-01-05 05:15:00,38.7,31.8,30.31,NE,49,2.2,4.0,76,0.00,,---,0.00,VWS V14.01,2013-01-05 13:15:00,
2013-01-05 05:20:00,38.3,31.7,30.31,NE,49,4.0,6.3,77,0.00,,---,0.00,VWS V14.01,2013-01-05 13:20:00,
2013-01-05 05:25:00,38.5,31.6,30.31,NE,43,3.1,4.9,76,0.00,,---,0.00,VWS V14.01,2013-01-05 13:25:00,
2013-01-05 05:30:00,38.5,31.6,30.31,NE,41,2.7,5.4,76,0.00,,---,0.00,VWS V14.01,2013-01-05 13:30:00,
2013-01-05 05:35:00,38.1,31.6,30.31,NE,41,3.6,4.9,77,0.00,,---,0.00,VWS V14.01,2013-01-05 13:35:00,
2013-01-05 05:40:00,38.3,32.0,30.31,NNE,24,4.0,5.4,78,0.00,,---,0.00,VWS V14.01,2013-01-05 13:40:00,
2013-01-05 05:45:00,38.3,32.0,30.31,East,86,3.1,6.3,78,0.00,,---,0.00,VWS V14.01,2013-01-05 13:45:00,
2013-01-05 05:50:00,38.3,31.7,30.31,ENE,59,4.5,6.7,77,0.00,,---,0.00,VWS V14.01,2013-01-05 13:50:00,
2013-01-05 05:55:00,38.3,31.7,30.31,NNE,33,2.7,4.0,77,0.00,,---,0.00,VWS V14.01,2013-01-05 13:55:00,
2013-01-05 06:00:00,38.1,31.6,30.31,NNE,16,3.6,4.0,77,0.00,,---,0.00,VWS V14.01,2013-01-05 14:00:00,
2013-01-05 06:05:00,38.1,31.2,30.34,NE,51,3.6,5.4,76,0.00,,---,0.00,VWS V14.01,2013-01-05 14:05:00,
2013-01-05 06:10:00,38.1,31.6,30.31,NE,46,4.0,4.5,77,0.00,,---,0.00,VWS V14.01,2013-01-05 14:10:00,
2013-01-05 06:15:00,38.3,31.7,30.31,NE,51,4.0,5.8,77,0.00,,---,0.00,VWS V14.01,2013-01-05 14:15:00,
2013-01-05 06:20:00,37.9,31.4,30.34,NE,42,2.7,4.9,77,0.00,,---,0.00,VWS V14.01,2013-01-05 14:20:00,
2013-01-05 06:25:00,38.1,31.6,30.31,NNE,27,2.2,6.3,77,0.00,,---,0.00,VWS V14.01,2013-01-05 14:25:00,
2013-01-05 06:30:00,38.1,31.6,30.31,NE,52,3.6,4.9,77,0.00,,---,0.00,VWS V14.01,2013-01-05 14:30:00,
2013-01-05 06:35:00,38.1,31.6,30.31,NE,41,3.6,4.9,77,0.00,,---,0.00,VWS V14.01,2013-01-05 14:35:00,
2013-01-05 06:40:00,38.1,31.6,30.31,NNE,21,3.1,5.8,77,0.00,,---,0.00,VWS V14.01,2013-01-05 14:40:00,
2013-01-05 06:45:00,37.4,30.9,30.34,NNE,25,3.1,4.0,77,0.00,,---,0.00,VWS V14.01,2013-01-05 14:45:00,
2013-01-05 06:50:00,38.1,31.6,30.31,NE,44,2.7,4.0,77,0.00,,---,0.00,VWS V14.01,2013-01-05 14:50:00,
2013-01-05 06:55:00,38.3,31.7,30.31,NNE,33,2.7,4.0,77,0.00,,---,0.00,VWS V14.01,2013-01-05 14:55:00,
2013-01-05 07:00:00,38.3,31.4,30.31,NE,48,2.7,4.0,76,0.00,,---,0.00,VWS V14.01,2013-01-05 15:00:00,
2013-01-05 07:05:00,37.9,31.7,30.34,NNE,28,2.2,3.1,78,0.00,,---,0.00,VWS V14.01,2013-01-05 15:05:00,
2013-01-05 07:10:00,38.1,31.6,30.34,NE,48,0.0,4.9,77,0.00,,---,0.00,VWS V14.01,2013-01-05 15:10:00,
2013-01-05 07:15:00,38.3,32.0,30.34,NE,38,2.7,3.1,78,0.00,,---,0.00,VWS V14.01,2013-01-05 15:15:00,
2013-01-05 07:20:00,37.9,31.4,30.34,NE,42,2.7,4.9,77,0.00,,---,0.00,VWS V14.01,2013-01-05 15:20:00,
2013-01-05 07:25:00,37.8,31.2,30.34,NE,39,2.7,4.0,77,0.00,,---,0.00,VWS V14.01,2013-01-05 15:25:00,
2013-01-05 07:30:00,39.0,32.8,30.34,NNE,33,2.7,4.9,78,0.00,,---,0.00,VWS V14.01,2013-01-05 15:30:00,
2013-01-05 07:35:00,37.6,31.0,30.34,NE,39,2.7,4.0,77,0.00,,---,0.00,VWS V14.01,2013-01-05 15:35:00,
2013-01-05 07:40:00,39.4,32.8,30.34,NE,49,2.7,4.0,77,0.00,,---,0.00,VWS V14.01,2013-01-05 15:40:00,
2013-01-05 07:45:00,37.4,30.9,30.34,NNE,25,3.1,4.0,77,0.00,,---,0.00,VWS V14.01,2013-01-05 15:45:00,
2013-01-05 07:50:00,37.4,31.2,30.34,NNE,27,3.1,3.6,78,0.00,,---,0.00,VWS V14.01,2013-01-05 15:50:00,
2013-01-05 07:55:00,40.3,33.3,30.34,ENE,58,3.1,4.0,76,0.00,,---,0.00,VWS V14.01,2013-01-05 15:55:00,
2013-01-05 08:00:00,37.6,31.4,30.34,NNE,27,0.0,3.1,78,0.00,,---,0.00,VWS V14.01,2013-01-05 16:00:00,
2013-01-05 08:05:00,37.9,31.7,30.34,NNE,28,2.2,3.1,78,0.00,,---,0.00,VWS V14.01,2013-01-05 16:05:00,
2013-01-05 08:10:00,38.1,31.9,30.34,NE,44,2.2,3.1,78,0.00,,---,0.00,VWS V14.01,2013-01-05 16:10:00,
2013-01-05 08:15:00,41.9,33.2,30.34,North,2,2.7,2.7,71,0.00,,---,0.00,VWS V14.01,2013-01-05 16:15:00,
2013-01-05 08:20:00,38.5,32.5,30.34,NE,52,3.6,4.0,79,0.00,,---,0.00,VWS V14.01,2013-01-05 16:20:00,
2013-01-05 08:25:00,38.7,32.7,30.34,NE,43,3.1,4.0,79,0.00,,---,0.00,VWS V14.01,2013-01-05 16:25:00,
2013-01-05 08:30:00,43.3,32.8,30.34,NNE,33,2.2,5.4,66,0.00,,---,0.00,VWS V14.01,2013-01-05 16:30:00,
2013-01-05 08:35:00,39.2,32.6,30.34,NE,52,4.0,4.0,77,0.00,,---,0.00,VWS V14.01,2013-01-05 16:35:00,
2013-01-05 08:40:00,44.1,33.1,30.34,NE,36,3.1,6.3,65,0.00,,---,0.00,VWS V14.01,2013-01-05 16:40:00,
2013-01-05 08:45:00,39.6,33.0,30.34,NE,43,2.7,3.1,77,0.00,,---,0.00,VWS V14.01,2013-01-05 16:45:00,
2013-01-05 08:50:00,39.7,32.8,30.34,NE,54,3.1,4.0,76,0.00,,---,0.00,VWS V14.01,2013-01-05 16:50:00,
2013-01-05 08:55:00,40.3,33.3,30.34,ENE,58,3.1,4.0,76,0.00,,---,0.00,VWS V14.01,2013-01-05 16:55:00,
2013-01-05 09:00:00,45.5,34.0,30.34,East,89,2.2,4.9,64,0.00,,---,0.00,VWS V14.01,2013-01-05 17:00:00,
2013-01-05 09:05:00,41.0,33.4,30.34,NE,49,3.1,5.8,74,0.00,,---,0.00,VWS V14.01,2013-01-05 17:05:00,
2013-01-05 09:10:00,41.4,33.4,30.34,NE,48,0.0,3.1,73,0.00,,---,0.00,VWS V14.01,2013-01-05 17:10:00,
2013-01-05 09:15:00,46.9,33.4,30.34,ENE,71,5.4,5.4,59,0.00,,---,0.00,VWS V14.01,2013-01-05 17:15:00,
2013-01-05 09:20:00,42.4,33.4,30.34,North,8,2.2,3.1,70,0.00,,---,0.00,VWS V14.01,2013-01-05 17:20:00,
2013-01-05 09:25:00,42.8,33.0,30.34,NE,37,3.1,4.0,68,0.00,,---,0.00,VWS V14.01,2013-01-05 17:25:00,
2013-01-05 09:30:00,43.3,32.8,30.34,NNE,33,2.2,5.4,66,0.00,,---,0.00,VWS V14.01,2013-01-05 17:30:00,
2013-01-05 09:35:00,43.7,32.7,30.34,NNE,29,4.9,5.4,65,0.00,,---,0.00,VWS V14.01,2013-01-05 17:35:00,
2013-01-05 09:40:00,48.7,32.8,30.34,East,93,0.0,3.1,54,0.00,,---,0.00,VWS V14.01,2013-01-05 17:40:00,
2013-01-05 09:45:00,44.2,33.2,30.34,NE,45,3.1,4.9,65,0.00,,---,0.00,VWS V14.01,2013-01-05 17:45:00,
2013-01-05 09:50:00,49.1,32.7,30.34,ENE,64,2.2,3.1,53,0.00,,---,0.00,VWS V14.01,2013-01-05 17:50:00,
2013-01-05 09:55:00,45.1,34.1,30.34,East,83,3.6,4.0,65,0.00,,---,0.00,VWS V14.01,2013-01-05 17:55:00,
2013-01-05 10:00:00,49.8,32.9,30.34,NE,39,0.0,3.1,52,0.00,,---,0.00,VWS V14.01,2013-01-05 18:00:00,
2013-01-05 10:05:00,46.0,34.2,30.34,ENE,65,0.0,4.0,63,0.00,,---,0.00,VWS V14.01,2013-01-05 18:05:00,
2013-01-05 10:10:00,46.6,33.0,30.34,East,89,2.7,4.0,59,0.00,,---,0.00,VWS V14.01,2013-01-05 18:10:00,
2013-01-05 10:15:00,50.7,32.8,30.31,NE,56,0.0,0.0,50,0.00,,---,0.00,VWS V14.01,2013-01-05 18:15:00,
2013-01-05 10:20:00,47.3,33.3,30.34,East,92,3.6,5.4,58,0.00,,---,0.00,VWS V14.01,2013-01-05 18:20:00,
2013-01-05 10:25:00,47.7,33.2,30.34,NNE,28,0.0,4.0,57,0.00,,---,0.00,VWS V14.01,2013-01-05 18:25:00,
2013-01-05 10:30:00,48.0,32.2,30.34,ENE,63,2.7,4.0,54,0.00,,---,0.00,VWS V14.01,2013-01-05 18:30:00,
2013-01-05 10:35:00,52.0,34.4,30.31,SW,233,0.0,0.0,51,0.00,,---,0.00,VWS V14.01,2013-01-05 18:35:00,
2013-01-05 10:40:00,48.7,32.8,30.34,East,93,0.0,3.1,54,0.00,,---,0.00,VWS V14.01,2013-01-05 18:40:00,
2013-01-05 10:45:00,52.3,34.8,30.31,SSW,212,0.0,0.0,51,0.00,,---,0.00,VWS V14.01,2013-01-05 18:45:00,
2013-01-05 10:50:00,49.1,32.7,30.34,ENE,64,2.2,3.1,53,0.00,,---,0.00,VWS V14.01,2013-01-05 18:50:00,
2013-01-05 10:55:00,49.5,32.6,30.34,ENE,64,0.0,3.6,52,0.00,,---,0.00,VWS V14.01,2013-01-05 18:55:00,
2013-01-05 11:00:00,49.8,32.9,30.34,NE,39,0.0,3.1,52,0.00,,---,0.00,VWS V14.01,2013-01-05 19:00:00,
2013-01-05 11:05:00,52.2,34.1,30.28,South,179,3.1,3.6,50,0.00,,---,0.00,VWS V14.01,2013-01-05 19:05:00,
2013-01-05 11:10:00,50.5,33.6,30.31,ENE,77,0.0,2.7,52,0.00,,---,0.00,VWS V14.01,2013-01-05 19:10:00,
2013-01-05 11:15:00,50.7,32.8,30.31,NE,56,0.0,0.0,50,0.00,,---,0.00,VWS V14.01,2013-01-05 19:15:00,
2013-01-05 11:20:00,52.7,34.6,30.25,NE,52,3.1,4.0,50,0.00,,---,0.00,VWS V14.01,2013-01-05 19:20:00,
2013-01-05 11:25:00,51.4,34.4,30.31,South,184,0.0,0.0,52,0.00,,---,0.00,VWS V14.01,2013-01-05 19:25:00,
2013-01-05 11:30:00,51.6,34.6,30.31,SSE,153,0.0,0.0,52,0.00,,---,0.00,VWS V14.01,2013-01-05 19:30:00,
2013-01-05 11:35:00,52.7,33.6,30.25,NNW,348,0.0,3.1,48,0.00,,---,0.00,VWS V14.01,2013-01-05 19:35:00,
2013-01-05 11:40:00,52.2,34.6,30.31,South,177,0.0,0.0,51,0.00,,---,0.00,VWS V14.01,2013-01-05 19:40:00,
2013-01-05 11:45:00,52.3,34.8,30.31,SSW,212,0.0,0.0,51,0.00,,---,0.00,VWS V14.01,2013-01-05 19:45:00,
2013-01-05 11:50:00,53.8,34.6,30.25,NW,312,0.0,0.0,48,0.00,,---,0.00,VWS V14.01,2013-01-05 19:50:00,
2013-01-05 11:55:00,52.5,33.9,30.28,WNW,289,0.0,0.0,49,0.00,,---,0.00,VWS V14.01,2013-01-05 19:55:00,
2013-01-05 12:00:00,54.3,34.5,30.25,South,187,2.7,3.6,47,0.00,,---,0.00,VWS V14.01,2013-01-05 20:00:00,
2013-01-05 12:05:00,52.2,34.1,30.28,South,179,3.1,3.6,50,0.00,,---,0.00,VWS V14.01,2013-01-05 20:05:00,
2013-01-05 12:10:00,54.5,34.7,30.22,SSW,197,2.7,3.6,47,0.00,,---,0.00,VWS V14.01,2013-01-05 20:10:00,
2013-01-05 12:15:00,52.7,35.1,30.28,East,101,2.2,3.6,51,0.00,,---,0.00,VWS V14.01,2013-01-05 20:15:00,
2013-01-05 12:20:00,52.7,34.6,30.25,NE,52,3.1,4.0,50,0.00,,---,0.00,VWS V14.01,2013-01-05 20:20:00,
2013-01-05 12:25:00,54.9,35.0,30.22,South,186,2.7,3.6,47,0.00,,---,0.00,VWS V14.01,2013-01-05 20:25:00,
2013-01-05 12:30:00,52.5,32.9,30.25,NE,55,0.0,0.0,47,0.00,,---,0.00,VWS V14.01,2013-01-05 20:30:00,
2013-01-05 12:35:00,54.3,34.5,30.22,South,184,3.1,4.0,47,0.00,,---,0.00,VWS V14.01,2013-01-05 20:35:00,
2013-01-05 12:40:00,52.9,33.7,30.25,NNW,346,0.0,2.2,48,0.00,,---,0.00,VWS V14.01,2013-01-05 20:40:00,
2013-01-05 12:45:00,54.1,34.4,30.22,SSW,194,2.7,3.1,47,0.00,,---,0.00,VWS V14.01,2013-01-05 20:45:00,
2013-01-05 12:50:00,53.8,34.6,30.25,NW,312,0.0,0.0,48,0.00,,---,0.00,VWS V14.01,2013-01-05 20:50:00,
2013-01-05 12:55:00,53.8,34.6,30.22,SSE,162,0.0,3.1,48,0.00,,---,0.00,VWS V14.01,2013-01-05 20:55:00,
2013-01-05 13:00:00,54.3,34.5,30.25,South,187,2.7,3.6,47,0.00,,---,0.00,VWS V14.01,2013-01-05 21:00:00,
2013-01-05 13:05:00,53.6,34.4,30.22,SSW,194,2.2,3.1,48,0.00,,---,0.00,VWS V14.01,2013-01-05 21:05:00,
2013-01-05 13:10:00,54.5,34.7,30.22,SSW,197,2.7,3.6,47,0.00,,---,0.00,VWS V14.01,2013-01-05 21:10:00,
2013-01-05 13:15:00,54.7,34.9,30.22,SSW,208,0.0,3.1,47,0.00,,---,0.00,VWS V14.01,2013-01-05 21:15:00,
2013-01-05 13:20:00,54.9,35.0,30.22,SW,214,3.6,4.0,47,0.00,,---,0.00,VWS V14.01,2013-01-05 21:20:00,
2013-01-05 13:25:00,52.7,34.1,30.22,SW,232,0.0,0.0,49,0.00,,---,0.00,VWS V14.01,2013-01-05 21:25:00,
2013-01-05 13:30:00,54.5,34.7,30.22,South,186,0.0,5.4,47,0.00,,---,0.00,VWS V14.01,2013-01-05 21:30:00,
2013-01-05 13:35:00,54.3,34.5,30.22,South,184,3.1,4.0,47,0.00,,---,0.00,VWS V14.01,2013-01-05 21:35:00,
2013-01-05 13:40:00,52.2,34.1,30.22,SSE,162,0.0,3.6,50,0.00,,---,0.00,VWS V14.01,2013-01-05 21:40:00,
2013-01-05 13:45:00,54.1,34.4,30.22,SSW,194,2.7,3.1,47,0.00,,---,0.00,VWS V14.01,2013-01-05 21:45:00,
2013-01-05 13:50:00,54.0,34.2,30.22,SSW,192,3.1,3.6,47,0.00,,---,0.00,VWS V14.01,2013-01-05 21:50:00,
2013-01-05 13:55:00,51.6,34.1,30.22,South,173,0.0,3.1,51,0.00,,---,0.00,VWS V14.01,2013-01-05 21:55:00,
2013-01-05 14:00:00,53.8,34.6,30.22,South,183,0.0,0.0,48,0.00,,---,0.00,VWS V14.01,2013-01-05 22:00:00,
2013-01-05 14:05:00,53.6,34.4,30.22,SSW,194,2.2,3.1,48,0.00,,---,0.00,VWS V14.01,2013-01-05 22:05:00,
2013-01-05 14:10:00,51.3,34.2,30.22,South,173,0.0,0.0,52,0.00,,---,0.00,VWS V14.01,2013-01-05 22:10:00,
2013-01-05 14:15:00,53.1,33.9,30.22,SSW,199,0.0,0.0,48,0.00,,---,0.00,VWS V14.01,2013-01-05 22:15:00,
2013-01-05 14:20:00,50.7,33.8,30.22,East,87,2.2,4.0,52,0.00,,---,0.00,VWS V14.01,2013-01-05 22:20:00,
2013-01-05 14:25:00,52.7,34.1,30.22,SW,232,0.0,0.0,49,0.00,,---,0.00,VWS V14.01,2013-01-05 22:25:00,
2013-01-05 14:30:00,50.4,33.9,30.22,ENE,70,3.1,3.6,53,0.00,,---,0.00,VWS V14.01,2013-01-05 22:30:00,
2013-01-05 14:35:00,52.3,33.8,30.22,SSW,196,0.0,0.0,49,0.00,,---,0.00,VWS V14.01,2013-01-05 22:35:00,
2013-01-05 14:40:00,50.2,34.2,30.22,ENE,69,2.7,3.1,54,0.00,,---,0.00,VWS V14.01,2013-01-05 22:40:00,
2013-01-05 14:45:00,52.0,33.9,30.22,SSW,196,0.0,0.0,50,0.00,,---,0.00,VWS V14.01,2013-01-05 22:45:00,
2013-01-05 14:50:00,50.2,34.7,30.22,ENE,68,0.0,0.0,55,0.00,,---,0.00,VWS V14.01,2013-01-05 22:50:00,
2013-01-05 14:55:00,51.6,34.1,30.22,South,173,0.0,3.1,51,0.00,,---,0.00,VWS V14.01,2013-01-05 22:55:00,
2013-01-05 15:00:00,51.4,33.9,30.22,South,173,0.0,0.0,51,0.00,,---,0.00,VWS V14.01,2013-01-05 23:00:00,
2013-01-05 15:05:00,49.8,35.2,30.22,South,184,0.0,0.0,57,0.00,,---,0.00,VWS V14.01,2013-01-05 23:05:00,
2013-01-05 15:10:00,51.3,34.2,30.22,South,173,0.0,0.0,52,0.00,,---,0.00,VWS V14.01,2013-01-05 23:10:00,
2013-01-05 15:15:00,49.5,35.3,30.22,South,184,0.0,0.0,58,0.00,,---,0.00,VWS V14.01,2013-01-05 23:15:00,
2013-01-05 15:20:00,50.7,33.8,30.22,East,87,2.2,4.0,52,0.00,,---,0.00,VWS V14.01,2013-01-05 23:20:00,
2013-01-05 15:25:00,49.1,36.2,30.22,West,277,0.0,3.6,61,0.00,,---,0.00,VWS V14.01,2013-01-05 23:25:00,
2013-01-05 15:30:00,50.4,33.9,30.22,ENE,70,3.1,3.6,53,0.00,,---,0.00,VWS V14.01,2013-01-05 23:30:00,
2013-01-05 15:35:00,50.2,34.2,30.22,SE,125,0.0,3.1,54,0.00,,---,0.00,VWS V14.01,2013-01-05 23:35:00,
2013-01-05 15:40:00,50.2,34.2,30.22,ENE,69,2.7,3.1,54,0.00,,---,0.00,VWS V14.01,2013-01-05 23:40:00,
2013-01-05 15:45:00,48.4,36.4,30.22,West,278,0.0,0.0,63,0.00,,---,0.00,VWS V14.01,2013-01-05 23:45:00,
2013-01-05 15:50:00,50.2,34.7,30.22,ENE,68,0.0,0.0,55,0.00,,---,0.00,VWS V14.01,2013-01-05 23:50:00,
2013-01-05 15:55:00,50.2,34.7,30.22,South,184,0.0,0.0,55,0.00,,---,0.00,VWS V14.01,2013-01-05 23:55:00,
2013-01-05 16:00:00,47.7,37.3,30.22,West,277,0.0,0.0,67,0.00,,---,0.00,VWS V14.01,2013-01-06 00:00:00,
2013-01-05 16:05:00,49.8,35.2,30.22,South,184,0.0,0.0,57,0.00,,---,0.00,VWS V14.01,2013-01-06 00:05:00,
2013-01-05 16:10:00,49.6,35.5,30.22,South,184,0.0,0.0,58,0.00,,---,0.00,VWS V14.01,2013-01-06 00:10:00,
2013-01-05 16:15:00,49.5,35.3,30.22,South,184,0.0,0.0,58,0.00,,---,0.00,VWS V14.01,2013-01-06 00:15:00,
2013-01-05 16:20:00,49.3,35.1,30.22,WNW,298,3.1,3.1,58,0.00,,---,0.00,VWS V14.01,2013-01-06 00:20:00,
2013-01-05 16:25:00,46.8,37.9,30.19,West,281,2.7,4.0,71,0.00,,---,0.00,VWS V14.01,2013-01-06 00:25:00,
2013-01-05 16:30:00,48.7,35.9,30.22,West,277,0.0,0.0,61,0.00,,---,0.00,VWS V14.01,2013-01-06 00:30:00,
2013-01-05 16:35:00,48.6,36.2,30.22,West,277,0.0,0.0,62,0.00,,---,0.00,VWS V14.01,2013-01-06 00:35:00,
2013-01-05 16:40:00,46.4,38.2,30.19,WNW,295,0.0,2.7,73,0.00,,---,0.00,VWS V14.01,2013-01-06 00:40:00,
2013-01-05 16:45:00,48.4,36.4,30.22,West,278,0.0,0.0,63,0.00,,---,0.00,VWS V14.01,2013-01-06 00:45:00,
2013-01-05 16:50:00,46.2,38.4,30.19,WNW,295,0.0,0.0,74,0.00,,---,0.00,VWS V14.01,2013-01-06 00:50:00,
2013-01-05 16:55:00,47.8,37.0,30.22,West,277,0.0,0.0,66,0.00,,---,0.00,VWS V14.01,2013-01-06 00:55:00,
2013-01-05 17:00:00,46.2,38.4,30.19,WNW,296,0.0,0.0,74,0.00,,---,0.00,VWS V14.01,2013-01-06 01:00:00,
2013-01-05 17:05:00,47.5,37.1,30.19,West,277,0.0,0.0,67,0.00,,---,0.00,VWS V14.01,2013-01-06 01:05:00,
2013-01-05 17:10:00,46.0,38.6,30.19,North,2,0.0,3.1,75,0.00,,---,0.00,VWS V14.01,2013-01-06 01:10:00,
2013-01-05 17:15:00,47.1,37.5,30.19,WNW,286,0.0,3.1,69,0.00,,---,0.00,VWS V14.01,2013-01-06 01:15:00,
2013-01-05 17:20:00,46.9,37.7,30.19,NNW,337,0.0,3.1,70,0.00,,---,0.00,VWS V14.01,2013-01-06 01:20:00,
2013-01-05 17:25:00,45.7,38.9,30.19,NE,44,3.6,4.5,77,0.00,,---,0.00,VWS V14.01,2013-01-06 01:25:00,
2013-01-05 17:30:00,46.6,38.0,30.19,NNW,327,4.9,4.9,72,0.00,,---,0.00,VWS V14.01,2013-01-06 01:30:00,
2013-01-05 17:35:00,45.5,39.0,30.19,NNW,335,2.7,4.0,78,0.00,,---,0.00,VWS V14.01,2013-01-06 01:35:00,
2013-01-05 17:40:00,46.4,38.2,30.19,WNW,295,0.0,2.7,73,0.00,,---,0.00,VWS V14.01,2013-01-06 01:40:00,
2013-01-05 17:45:00,45.5,39.4,30.19,NE,41,0.0,3.6,79,0.00,,---,0.00,VWS V14.01,2013-01-06 01:45:00,
2013-01-05 17:50:00,46.2,38.4,30.19,WNW,295,0.0,0.0,74,0.00,,---,0.00,VWS V14.01,2013-01-06 01:50:00,
2013-01-05 17:55:00,46.2,38.4,30.19,WNW,295,0.0,0.0,74,0.00,,---,0.00,VWS V14.01,2013-01-06 01:55:00,
2013-01-05 18:00:00,46.2,38.4,30.19,WNW,296,0.0,0.0,74,0.00,,---,0.00,VWS V14.01,2013-01-06 02:00:00,
2013-01-05 18:05:00,46.2,38.8,30.19,NNE,19,0.0,0.0,75,0.00,,---,0.00,VWS V14.01,2013-01-06 02:05:00,
2013-01-05 18:10:00,45.9,39.7,30.19,North,349,0.0,0.0,79,0.00,,---,0.00,VWS V14.01,2013-01-06 02:10:00,
2013-01-05 18:15:00,46.0,38.6,30.19,NE,37,0.0,3.1,75,0.00,,---,0.00,VWS V14.01,2013-01-06 02:15:00,
2013-01-05 18:20:00,46.0,39.6,30.19,NE,36,0.0,0.0,78,0.00,,---,0.00,VWS V14.01,2013-01-06 02:20:00,
2013-01-05 18:25:00,45.7,38.9,30.19,NE,44,3.6,4.5,77,0.00,,---,0.00,VWS V14.01,2013-01-06 02:25:00,
2013-01-05 18:30:00,45.7,39.2,30.19,NNE,26,4.0,4.9,78,0.00,,---,0.00,VWS V14.01,2013-01-06 02:30:00,
2013-01-05 18:35:00,45.7,38.6,30.19,NNE,32,2.7,4.0,76,0.00,,---,0.00,VWS V14.01,2013-01-06 02:35:00,
2013-01-05 18:40:00,45.5,39.4,30.19,NE,38,3.1,4.0,79,0.00,,---,0.00,VWS V14.01,2013-01-06 02:40:00,
2013-01-05 18:45:00,45.3,38.9,30.19,NNE,33,3.1,4.0,78,0.00,,---,0.00,VWS V14.01,2013-01-06 02:45:00,
2013-01-05 18:50:00,45.3,39.2,30.19,North,4,0.0,2.7,79,0.00,,---,0.00,VWS V14.01,2013-01-06 02:50:00,
2013-01-05 18:55:00,45.5,39.4,30.19,North,4,0.0,0.0,79,0.00,,---,0.00,VWS V14.01,2013-01-06 02:55:00,
2013-01-05 19:00:00,44.8,39.3,30.19,NNE,14,0.0,3.1,81,0.00,,---,0.00,VWS V14.01,2013-01-06 03:00:00,
2013-01-05 19:05:00,45.9,39.7,30.19,NNW,348,0.0,3.1,79,0.00,,---,0.00,VWS V14.01,2013-01-06 03:05:00,
2013-01-05 19:10:00,45.1,39.7,30.19,NNE,20,2.2,5.4,81,0.00,,---,0.00,VWS V14.01,2013-01-06 03:10:00,
2013-01-05 19:15:00,46.0,39.6,30.19,North,349,0.0,0.0,78,0.00,,---,0.00,VWS V14.01,2013-01-06 03:15:00,
2013-01-05 19:20:00,45.5,40.0,30.19,NNE,32,0.0,3.1,81,0.00,,---,0.00,VWS V14.01,2013-01-06 03:20:00,
2013-01-05 19:25:00,46.0,39.2,30.19,NNE,24,0.0,0.0,77,0.00,,---,0.00,VWS V14.01,2013-01-06 03:25:00,
2013-01-05 19:30:00,45.7,39.5,30.19,NE,45,0.0,3.1,79,0.00,,---,0.00,VWS V14.01,2013-01-06 03:30:00,
2013-01-05 19:35:00,45.7,38.6,30.19,NNE,32,2.7,4.0,76,0.00,,---,0.00,VWS V14.01,2013-01-06 03:35:00,
2013-01-05 19:40:00,45.5,38.7,30.19,NNE,31,2.2,4.0,77,0.00,,---,0.00,VWS V14.01,2013-01-06 03:40:00,
2013-01-05 19:45:00,45.3,38.9,30.19,NNE,33,3.1,4.0,78,0.00,,---,0.00,VWS V14.01,2013-01-06 03:45:00,
2013-01-05 19:50:00,45.1,39.0,30.19,ENE,60,3.6,4.0,79,0.00,,---,0.00,VWS V14.01,2013-01-06 03:50:00,
2013-01-05 19:55:00,45.9,38.7,30.19,NNE,28,0.0,4.0,76,0.00,,---,0.00,VWS V14.01,2013-01-06 03:55:00,
2013-01-05 20:00:00,44.8,39.3,30.19,NNE,14,0.0,3.1,81,0.00,,---,0.00,VWS V14.01,2013-01-06 04:00:00,
2013-01-05 20:05:00,45.9,38.7,30.19,NNE,28,0.0,0.0,76,0.00,,---,0.00,VWS V14.01,2013-01-06 04:05:00,
2013-01-05 20:10:00,45.1,39.7,30.19,NNE,20,2.2,5.4,81,0.00,,---,0.00,VWS V14.01,2013-01-06 04:10:00,
2013-01-05 20:15:00,45.3,39.8,30.19,North,3,3.1,4.9,81,0.00,,---,0.00,VWS V14.01,2013-01-06 04:15:00,
2013-01-05 20:20:00,45.9,38.4,30.19,NNE,14,0.0,0.0,75,0.00,,---,0.00,VWS V14.01,2013-01-06 04:20:00,
2013-01-05 20:25:00,45.7,39.9,30.19,NNE,14,3.1,3.6,80,0.00,,---,0.00,VWS V14.01,2013-01-06 04:25:00,
2013-01-05 20:30:00,45.7,39.5,30.19,NE,45,0.0,3.1,79,0.00,,---,0.00,VWS V14.01,2013-01-06 04:30:00,
2013-01-05 20:35:00,45.9,39.4,30.16,NE,51,3.1,4.0,78,0.00,,---,0.00,VWS V14.01,2013-01-06 04:35:00,
2013-01-05 20:40:00,45.5,38.0,30.19,NNE,14,2.2,2.2,75,0.00,,---,0.00,VWS V14.01,2013-01-06 04:40:00,
2013-01-05 20:45:00,45.9,38.7,30.16,NNE,29,2.2,3.6,76,0.00,,---,0.00,VWS V14.01,2013-01-06 04:45:00,
2013-01-05 20:50:00,45.9,38.7,30.19,NNE,29,0.0,2.7,76,0.00,,---,0.00,VWS V14.01,2013-01-06 04:50:00,
2013-01-05 20:55:00,45.3,37.9,30.19,NNE,14,0.0,0.0,75,0.00,,---,0.00,VWS V14.01,2013-01-06 04:55:00,
2013-01-05 21:00:00,45.7,38.6,30.19,NNE,28,0.0,0.0,76,0.00,,---,0.00,VWS V14.01,2013-01-06 05:00:00,
2013-01-05 21:05:00,45.9,38.7,30.19,NNE,28,0.0,0.0,76,0.00,,---,0.00,VWS V14.01,2013-01-06 05:05:00,
2013-01-05 21:10:00,45.9,38.4,30.19,NNE,17,2.7,3.1,75,0.00,,---,0.00,VWS V14.01,2013-01-06 05:10:00,
2013-01-05 21:15:00,45.9,38.4,30.19,NNE,14,0.0,2.7,75,0.00,,---,0.00,VWS V14.01,2013-01-06 05:15:00,
2013-01-05 21:20:00,44.6,37.8,30.19,East,94,0.0,0.0,77,0.00,,---,0.00,VWS V14.01,2013-01-06 05:20:00,
2013-01-05 21:25:00,45.9,38.4,30.19,NNE,14,0.0,0.0,75,0.00,,---,0.00,VWS V14.01,2013-01-06 05:25:00,
2013-01-05 21:30:00,44.2,38.5,30.19,North,353,4.0,4.0,80,0.00,,---,0.00,VWS V14.01,2013-01-06 05:30:00,
2013-01-05 21:35:00,45.7,38.2,30.19,NNE,14,0.0,0.0,75,0.00,,---,0.00,VWS V14.01,2013-01-06 05:35:00,
2013-01-05 21:40:00,45.5,38.0,30.19,NNE,14,2.2,2.2,75,0.00,,---,0.00,VWS V14.01,2013-01-06 05:40:00,
2013-01-05 21:45:00,45.3,37.9,30.19,NNE,14,0.0,2.2,75,0.00,,---,0.00,VWS V14.01,2013-01-06 05:45:00,
2013-01-05 21:50:00,44.2,39.4,30.19,NNW,327,0.0,0.0,83,0.00,,---,0.00,VWS V14.01,2013-01-06 05:50:00,
2013-01-05 21:55:00,45.3,37.9,30.19,NNE,14,0.0,0.0,75,0.00,,---,0.00,VWS V14.01,2013-01-06 05:55:00,
2013-01-05 22:00:00,45.1,37.7,30.19,NNE,14,0.0,0.0,75,0.00,,---,0.00,VWS V14.01,2013-01-06 06:00:00,
2013-01-05 22:05:00,45.1,38.0,30.19,NNE,14,0.0,0.0,76,0.00,,---,0.00,VWS V14.01,2013-01-06 06:05:00,
2013-01-05 22:10:00,45.0,37.9,30.19,NNE,14,0.0,0.0,76,0.00,,---,0.00,VWS V14.01,2013-01-06 06:10:00,
2013-01-05 22:15:00,44.8,37.7,30.19,North,357,0.0,0.0,76,0.00,,---,0.00,VWS V14.01,2013-01-06 06:15:00,
2013-01-05 22:20:00,44.6,37.8,30.19,East,94,0.0,0.0,77,0.00,,---,0.00,VWS V14.01,2013-01-06 06:20:00,
2013-01-05 22:25:00,44.1,39.8,30.19,NNE,19,0.0,0.0,85,0.00,,---,0.00,VWS V14.01,2013-01-06 06:25:00,
2013-01-05 22:30:00,44.2,38.5,30.19,North,353,4.0,4.0,80,0.00,,---,0.00,VWS V14.01,2013-01-06 06:30:00,
2013-01-05 22:35:00,44.1,38.9,30.16,ENE,76,0.0,5.4,82,0.00,,---,0.00,VWS V14.01,2013-01-06 06:35:00,
2013-01-05 22:40:00,44.1,38.9,30.16,ENE,72,0.0,2.7,82,0.00,,---,0.00,VWS V14.01,2013-01-06 06:40:00,
2013-01-05 22:45:00,44.1,40.2,30.19,North,1,0.0,0.0,86,0.00,,---,0.00,VWS V14.01,2013-01-06 06:45:00,
2013-01-05 22:50:00,44.2,39.4,30.19,NNW,327,0.0,0.0,83,0.00,,---,0.00,VWS V14.01,2013-01-06 06:50:00,
2013-01-05 22:55:00,44.2,39.4,30.19,NNW,327,0.0,0.0,83,0.00,,---,0.00,VWS V14.01,2013-01-06 06:55:00,
2013-01-05 23:00:00,44.1,39.5,30.19,NNE,25,0.0,0.0,84,0.00,,---,0.00,VWS V14.01,2013-01-06 07:00:00,
2013-01-05 23:05:00,43.9,40.3,30.19,NNW,344,0.0,0.0,87,0.00,,---,0.00,VWS V14.01,2013-01-06 07:05:00,
2013-01-05 23:10:00,44.2,39.7,30.19,NNE,25,0.0,0.0,84,0.00,,---,0.00,VWS V14.01,2013-01-06 07:10:00,
2013-01-05 23:15:00,43.9,40.3,30.19,NNW,343,0.0,0.0,87,0.00,,---,0.00,VWS V14.01,2013-01-06 07:15:00,
2013-01-05 23:20:00,44.1,39.8,30.19,NNE,19,0.0,0.0,85,0.00,,---,0.00,VWS V14.01,2013-01-06 07:20:00,
2013-01-05 23:25:00,44.1,40.5,30.19,NNW,344,0.0,0.0,87,0.00,,---,0.00,VWS V14.01,2013-01-06 07:25:00,
2013-01-05 23:30:00,44.1,39.8,30.19,North,2,3.1,3.6,85,0.00,,---,0.00,VWS V14.01,2013-01-06 07:30:00,
2013-01-05 23:35:00,43.9,40.3,30.17,NE,47,0.0,0.0,87,0.00,,---,0.00,VWS V14.01,2013-01-06 07:35:00,
2013-01-05 23:40:00,44.1,40.2,30.19,North,2,0.0,0.0,86,0.00,,---,0.00,VWS V14.01,2013-01-06 07:40:00,
2013-01-05 23:45:00,44.1,40.2,30.19,North,1,0.0,0.0,86,0.00,,---,0.00,VWS V14.01,2013-01-06 07:45:00,
2013-01-05 23:50:00,43.9,40.3,30.17,NE,47,0.0,0.0,87,0.00,,---,0.00,VWS V14.01,2013-01-06 07:50:00,
2013-01-05 23:55:00,43.9,40.3,30.16,NNW,344,0.0,0.0,87,0.00,,---,0.00,VWS V14.01,2013-01-06 07:55:00,